Location: High Point State Park
(41.2941°N, 74.6906°W)
Time: 21:04:24
(UTC-05:00)

HST - Visible Passes

Search period start: 22 November 2014 00:00
Search period end: 02 December 2014 00:00
Orbit: 545 x 550 km, 28.5° (Epoch: 21 November)

Date Brightness Start Highest point End Pass type
(mag) Time Alt. Az. Time Alt. Az. Time Alt. Az.
22 Nov 3.4 06:17:37 10° SSW 06:19:40 13° S 06:21:43 10° SE visible
23 Nov 3.4 06:09:51 10° SSW 06:12:02 14° S 06:14:12 10° SSE visible
24 Nov 3.6 04:24:03 11° SSE 04:24:03 11° SSE 04:24:44 10° SSE visible
24 Nov 3.3 06:02:11 10° SSW 06:04:22 14° S 06:06:34 10° SSE visible
25 Nov 3.6 04:17:07 11° SSE 04:17:07 11° SSE 04:17:43 10° SSE visible
25 Nov 3.3 05:54:36 10° SW 05:56:43 14° S 05:58:50 10° SSE visible
26 Nov 3.7 04:10:08 11° SSE 04:10:08 11° SSE 04:10:23 10° SE visible
26 Nov 3.3 05:47:06 10° SW 05:49:02 13° S 05:50:59 10° SSE visible
27 Nov 3.3 05:39:45 10° SSW 05:41:21 12° S 05:42:57 10° SSE visible
28 Nov 3.3 05:32:43 10° SSW 05:33:39 11° SSW 05:34:35 10° S visible
